Miscellaneous Local Product
Issued by NWS North Platte, NE

Home | Current Version | Previous Version | Text Only | Print | Product List | Glossary On
Versions: 1 2 3 4 5 6 7 8 9 10 11 12 13 14 15 16 17 18 19 20 21 22 23 24 25 26 27 28 29 30 31 32 33 34 35 36 37 38 39 40 41 42 43 44 45 46 47 48 49 50
000
AXUS43 KLBF 050010
MISLBF


WESTERN AND NORTH CENTRAL NEBRASKA HOURLY WEATHER ROUNDUP
NATIONAL WEATHER SERVICE NORTH PLATTE NE
700 PM CDT SAT JUL 04 2015

***STATIONS NOT REPORTING VARIABLES SUCH AS SKY/WEATHER OR
PRESSURE ARE PROVIDED BY THE NEBRASKA DEPARTMENT OF
ROADS...RAWS...AND APRS NETWORKS...AND ARE NOT UNDER
NATIONAL WEATHER SERVICE QUALITY CONTROL***

...OBSERVATIONS IN AND NEAR THE EASTERN PANHANDLE OF NEBRASKA...

CITY           SKY/WX    TMP DP  RH WIND       PRES   REMARKS
PINE RIDGE     SUNNY     89  62  40 S13       29.79F
CHADRON        PTSUNNY   90  62  39 SW10      29.79S HX  90
ALLIANCE       CLOUDY    81  60  48 S9        29.85R
SIDNEY         SUNNY     92  56  29 SE17G23   29.88F HX  90
WHITECLAY        N/A     91  61  36 S12         N/A  HX  91
BIG SPRINGS      N/A     90  62  38 SE12        N/A  HX  90
$$

...OBSERVATIONS IN NORTH CENTRAL NEBRASKA...

CITY           SKY/WX    TMP DP  RH WIND       PRES   REMARKS
VALENTINE      SUNNY     89  64  43 S17G28    29.80F HX  90
THEDFORD       SUNNY     89  65  45 S16       29.86F HX  90
AINSWORTH      SUNNY     86  66  51 S17G23    29.84S
O`NEILL        SUNNY     85  67  54 S18       29.85F
ORD            SUNNY     85  65  51 S10G21    29.86F
BROKEN BOW     SUNNY     86  66  51 S18G26    29.88S
VALENTINE NWR    N/A     89  65  44 S16G23      N/A  HX  90
SPRINGVIEW       N/A     89  69  51 SE8G22      N/A  HX  93
HALSEY           N/A     87  65  47 SE10G21     N/A
BREWSTER         N/A     90  69  49 S22         N/A  HX  94
ROSE             N/A     96  79  58 S17         N/A  HX 113
NEWPORT          N/A     86  67  53 S14         N/A
CHAMBERS         N/A     88  66  48 S6G15       N/A  HX  90
EWING            N/A     82  70  66 S7          N/A
$$

...OBSERVATIONS IN SOUTHWEST NEBRASKA AND FAR NORTHEAST COLORADO...

CITY           SKY/WX    TMP DP  RH WIND       PRES   REMARKS
WRAY           FAIR      96  51  21 SE16      29.85S HX  93
HOLYOKE        FAIR      95  55  26 S15       29.85F HX  93
IMPERIAL       SUNNY     94  56  27 SE16      29.84S HX  92
OGALLALA       PTSUNNY   88  59  37 SE8       29.84F
NORTH PLATTE   SUNNY     89  62  40 SE12G23   29.84F
MCCOOK         SUNNY     92  60  34 S14G25    29.84S HX  91
LEXINGTON      SUNNY     88  65  47 SE17      29.87F HX  90
PAXTON           N/A     89  64  42 SE9         N/A  HX  90
GOTHENBURG       N/A     87  61  41 SE9         N/A
CALLAWAY         N/A     85  70  61 SE20        N/A
$$

...NORTH PLATTE AREA...

CITY           SKY/WX    TMP DP  RH WIND       PRES   REMARKS
AIRPORT        SUNNY     89  62  40 SE12G23   29.84F
DOWNTOWN         N/A     90  66  44 S6          N/A  HX  92
HILLCREST        N/A     88  65  46 SE13G20     N/A  HX  90
$$

...SOME WEATHER OBSERVATIONS FROM AROUND THE REGION...

CITY           SKY/WX    TMP DP  RH WIND       PRES   REMARKS
DENVER         PTSUNNY   87  46  24 SW20G28   29.96F
LARAMIE        PTSUNNY   84  38  19 W13       30.09S
CHEYENNE       MOSUNNY   87  47  24 CALM      30.00F
SCOTTSBLUFF    PTSUNNY   92  50  23 VRB6      29.81F THUNDER
RAPID CITY     SUNNY     88  63  43 S3        29.79F
PIERRE         SUNNY     87  68  52 SE15      29.69F HX  90
WINNER         FAIR      92  62  36 S20G26    29.77F HX  92
SIOUX FALLS    PTSUNNY   79  64  60 S14       29.88F
OMAHA          PTSUNNY   81  61  50 S12       29.92F
GRAND ISLAND   SUNNY     82  65  56 SE14      29.90F
KANSAS CITY    PTSUNNY   80  61  52 SE7       29.94F
WICHITA        MOSUNNY   89  63  41 SE13      29.89F HX  90
HAYS           SUNNY     90  64  43 S17G28    29.88F HX  91
LIBERAL        PTSUNNY   84  61  45 S12       29.91F
GOODLAND       SUNNY     91  59  33 S17G24    29.87F HX  90
$$



USA.gov is the U.S. government's official web portal to all federal, state and local government web resources and services.